Location: G�ndlingen
(48.0142°N, 7.6396°E)
Time: 18:08:50
(UTC+00:00)

ATLAS 2AS CENTAUR R/B - Pass Details

Date: 05 July 2020
Orbit: 930 x 1282 km, 63.7° (Epoch: 19 July)

Event Time Altitude Azimuth Distance (km) Brightness Sun altitude
Rises 22:31:53 0° 319° (NW) 4,181 6.9 -17.9°
Reaches altitude 10° 22:34:45 10° 317° (NW) 3,174 6.1 -18.1°
Maximum altitude 22:42:20 73° 235° (SW) 1,199 2.8 -18.4°
Enters shadow 22:46:18 28° 157° (SSE) 1,927 3.5 -18.5°
